Year,Month,Day,Hour,Minute,Value (Times are PST for temperature in C)
2009,04,12,00,00,7.90
2009,04,12,00,01,7.90
2009,04,12,00,02,7.90
2009,04,12,00,03,7.90
2009,04,12,00,04,7.80
2009,04,12,00,05,7.80
2009,04,12,00,06,7.80
2009,04,12,00,07,7.80
2009,04,12,00,08,7.80
2009,04,12,00,09,7.80
2009,04,12,00,10,7.80
2009,04,12,00,11,7.80
2009,04,12,00,12,7.80
2009,04,12,00,13,7.80
2009,04,12,00,14,7.80
2009,04,12,00,15,7.80
2009,04,12,00,16,7.80
2009,04,12,00,17,7.80
2009,04,12,00,18,7.80
2009,04,12,00,19,7.80
2009,04,12,00,20,7.80
2009,04,12,00,21,7.80
2009,04,12,00,22,7.80
2009,04,12,00,23,7.80
2009,04,12,00,24,7.80
2009,04,12,00,25,7.80
2009,04,12,00,26,7.80
2009,04,12,00,27,7.80
2009,04,12,00,28,7.80
2009,04,12,00,29,7.80
2009,04,12,00,30,7.80
2009,04,12,00,31,7.80
2009,04,12,00,32,7.80
2009,04,12,00,33,7.80
2009,04,12,00,34,7.80
2009,04,12,00,35,7.90
2009,04,12,00,36,7.90
2009,04,12,00,37,7.90
2009,04,12,00,38,7.90
2009,04,12,00,39,7.90
2009,04,12,00,40,7.90
2009,04,12,00,41,7.90
2009,04,12,00,42,7.90
2009,04,12,00,43,7.90
2009,04,12,00,44,7.90
2009,04,12,00,45,7.90
2009,04,12,00,46,7.90
2009,04,12,00,47,7.90
2009,04,12,00,48,7.90
2009,04,12,00,49,7.90
2009,04,12,00,50,7.80
2009,04,12,00,51,7.80
2009,04,12,00,52,7.80
2009,04,12,00,53,7.80
2009,04,12,00,54,7.80
2009,04,12,00,55,7.80
2009,04,12,00,56,7.80
2009,04,12,00,57,7.80
2009,04,12,00,58,7.80
2009,04,12,00,59,7.80
2009,04,12,01,00,7.80
2009,04,12,01,01,7.80
2009,04,12,01,02,7.80
2009,04,12,01,03,7.80
2009,04,12,01,04,7.80
2009,04,12,01,05,7.80
2009,04,12,01,06,7.80
2009,04,12,01,07,7.80
2009,04,12,01,08,7.70
2009,04,12,01,09,7.70
2009,04,12,01,10,7.70
2009,04,12,01,11,7.70
2009,04,12,01,12,7.70
2009,04,12,01,13,7.70
2009,04,12,01,14,7.70
2009,04,12,01,15,7.70
2009,04,12,01,16,7.70
2009,04,12,01,17,7.70
2009,04,12,01,18,7.70
2009,04,12,01,19,7.70
2009,04,12,01,20,7.70
2009,04,12,01,21,7.70
2009,04,12,01,22,7.70
2009,04,12,01,23,7.70
2009,04,12,01,24,7.70
2009,04,12,01,25,7.70
2009,04,12,01,26,7.70
2009,04,12,01,27,7.70
2009,04,12,01,28,7.70
2009,04,12,01,29,7.60
2009,04,12,01,30,7.60
2009,04,12,01,31,7.60
2009,04,12,01,32,7.60
2009,04,12,01,33,7.60
2009,04,12,01,34,7.60
2009,04,12,01,35,7.70
2009,04,12,01,36,7.70
2009,04,12,01,37,7.70
2009,04,12,01,38,7.70
2009,04,12,01,39,7.70
2009,04,12,01,40,7.70
2009,04,12,01,41,7.70
2009,04,12,01,42,7.70
2009,04,12,01,43,7.70
2009,04,12,01,44,7.70
2009,04,12,01,45,7.70
2009,04,12,01,46,7.70
2009,04,12,01,47,7.70
2009,04,12,01,48,7.70
2009,04,12,01,49,7.70
2009,04,12,01,50,7.80
2009,04,12,01,51,7.80
2009,04,12,01,52,7.80
2009,04,12,01,53,7.80
2009,04,12,01,54,7.80
2009,04,12,01,55,7.80
2009,04,12,01,56,7.80
2009,04,12,01,57,7.80
2009,04,12,01,58,7.80
2009,04,12,01,59,7.90
2009,04,12,02,00,7.90
2009,04,12,02,01,7.90
2009,04,12,02,02,7.90
2009,04,12,02,03,7.90
2009,04,12,02,04,7.90
2009,04,12,02,05,7.80
2009,04,12,02,06,7.80
2009,04,12,02,07,7.80
2009,04,12,02,08,7.80
2009,04,12,02,09,7.80
2009,04,12,02,10,7.80
2009,04,12,02,11,7.80
2009,04,12,02,12,7.80
2009,04,12,02,13,7.80
2009,04,12,02,14,7.80
2009,04,12,02,15,7.80
2009,04,12,02,16,7.80
2009,04,12,02,17,7.80
2009,04,12,02,18,7.80
2009,04,12,02,19,7.80
2009,04,12,02,20,7.80
2009,04,12,02,21,7.80
2009,04,12,02,22,7.80
2009,04,12,02,23,7.80
2009,04,12,02,24,7.80
2009,04,12,02,25,7.80
2009,04,12,02,26,7.80
2009,04,12,02,27,7.80
2009,04,12,02,28,7.80
2009,04,12,02,29,7.80
2009,04,12,02,30,7.80
2009,04,12,02,31,7.80
2009,04,12,02,32,7.80
2009,04,12,02,33,7.80
2009,04,12,02,34,7.80
2009,04,12,02,35,7.80
2009,04,12,02,36,7.80
2009,04,12,02,37,7.80
2009,04,12,02,38,7.80
2009,04,12,02,39,7.80
2009,04,12,02,40,7.80
2009,04,12,02,41,7.80
2009,04,12,02,42,7.80
2009,04,12,02,43,7.80
2009,04,12,02,44,7.80
2009,04,12,02,45,7.80
2009,04,12,02,46,7.80
2009,04,12,02,47,7.80
2009,04,12,02,48,7.80
2009,04,12,02,49,7.80
2009,04,12,02,50,7.80
2009,04,12,02,51,7.80
2009,04,12,02,52,7.80
2009,04,12,02,53,7.80
2009,04,12,02,54,7.70
2009,04,12,02,55,7.70
2009,04,12,02,56,7.70
2009,04,12,02,57,7.70
2009,04,12,02,58,7.70
2009,04,12,02,59,7.70
2009,04,12,03,00,7.70
2009,04,12,03,01,7.70
2009,04,12,03,02,7.70
2009,04,12,03,03,7.70
2009,04,12,03,04,7.70
2009,04,12,03,05,7.70
2009,04,12,03,06,7.70
2009,04,12,03,07,7.70
2009,04,12,03,08,7.70
2009,04,12,03,09,7.70
2009,04,12,03,10,7.70
2009,04,12,03,11,7.70
2009,04,12,03,12,7.70
2009,04,12,03,13,7.70
2009,04,12,03,14,7.70
2009,04,12,03,15,7.70
2009,04,12,03,16,7.70
2009,04,12,03,17,7.70
2009,04,12,03,18,7.70
2009,04,12,03,19,7.70
2009,04,12,03,20,7.60
2009,04,12,03,21,7.60
2009,04,12,03,22,7.60
2009,04,12,03,23,7.60
2009,04,12,03,24,7.60
2009,04,12,03,25,7.60
2009,04,12,03,26,7.60
2009,04,12,03,27,7.70
2009,04,12,03,28,7.60
2009,04,12,03,29,7.60
2009,04,12,03,30,7.60
2009,04,12,03,31,7.60
2009,04,12,03,32,7.60
2009,04,12,03,33,7.60
2009,04,12,03,34,7.60
2009,04,12,03,35,7.50
2009,04,12,03,36,7.50
2009,04,12,03,37,7.50
2009,04,12,03,38,7.50
2009,04,12,03,39,7.50
2009,04,12,03,40,7.50
2009,04,12,03,41,7.50
2009,04,12,03,42,7.50
2009,04,12,03,43,7.50
2009,04,12,03,44,7.40
2009,04,12,03,45,7.40
2009,04,12,03,46,7.40
2009,04,12,03,47,7.40
2009,04,12,03,48,7.40
2009,04,12,03,49,7.40
2009,04,12,03,50,7.40
2009,04,12,03,51,7.40
2009,04,12,03,52,7.30
2009,04,12,03,53,7.30
2009,04,12,03,54,7.30
2009,04,12,03,55,7.30
2009,04,12,03,56,7.30
2009,04,12,03,57,7.30
2009,04,12,03,58,7.30
2009,04,12,03,59,7.30
2009,04,12,04,00,7.30
2009,04,12,04,01,7.30
2009,04,12,04,02,7.30
2009,04,12,04,03,7.30
2009,04,12,04,04,7.30
2009,04,12,04,05,7.20
2009,04,12,04,06,7.20
2009,04,12,04,07,7.20
2009,04,12,04,08,7.20
2009,04,12,04,09,7.20
2009,04,12,04,10,7.20
2009,04,12,04,11,7.20
2009,04,12,04,12,7.20
2009,04,12,04,13,7.20
2009,04,12,04,14,7.20
2009,04,12,04,15,7.20
2009,04,12,04,16,7.20
2009,04,12,04,17,7.20
2009,04,12,04,18,7.20
2009,04,12,04,19,7.20
2009,04,12,04,20,7.20
2009,04,12,04,21,7.20
2009,04,12,04,22,7.10
2009,04,12,04,23,7.10
2009,04,12,04,24,7.10
2009,04,12,04,25,7.10
2009,04,12,04,26,7.10
2009,04,12,04,27,7.10
2009,04,12,04,28,7.10
2009,04,12,04,29,7.00
2009,04,12,04,30,7.00
2009,04,12,04,31,7.00
2009,04,12,04,32,7.00
2009,04,12,04,33,7.00
2009,04,12,04,34,7.00
2009,04,12,04,35,7.00
2009,04,12,04,36,7.00
2009,04,12,23,02,6.80
2009,04,12,23,03,6.70
2009,04,12,23,04,6.70
2009,04,12,23,05,6.70
2009,04,12,23,06,6.60
2009,04,12,23,07,6.60
2009,04,12,23,08,6.50
2009,04,12,23,09,6.40
2009,04,12,23,10,6.40
2009,04,12,23,11,6.40
2009,04,12,23,12,6.40
2009,04,12,23,13,6.40
2009,04,12,23,14,6.40
2009,04,12,23,15,6.30
2009,04,12,23,16,6.30
2009,04,12,23,17,6.30
2009,04,12,23,18,6.30
2009,04,12,23,19,6.20
2009,04,12,23,20,6.20
2009,04,12,23,21,6.10
2009,04,12,23,22,6.00
2009,04,12,23,23,6.00
2009,04,12,23,24,5.90
2009,04,12,23,25,5.90
2009,04,12,23,26,5.80
2009,04,12,23,27,5.80
2009,04,12,23,28,5.80
2009,04,12,23,29,5.80
2009,04,12,23,30,5.80
2009,04,12,23,31,5.80
2009,04,12,23,32,5.80
2009,04,12,23,33,5.80
2009,04,12,23,34,5.80
2009,04,12,23,35,5.80
2009,04,12,23,36,5.80
2009,04,12,23,37,5.80
2009,04,12,23,38,5.90
2009,04,12,23,39,5.90
2009,04,12,23,40,5.90
2009,04,12,23,41,5.90
2009,04,12,23,42,6.00
2009,04,12,23,43,6.00
2009,04,12,23,44,6.00
2009,04,12,23,45,6.00
2009,04,12,23,46,6.00
2009,04,12,23,47,5.90
2009,04,12,23,48,5.90
2009,04,12,23,49,5.90
2009,04,12,23,50,5.90
2009,04,12,23,51,5.90
2009,04,12,23,52,5.90
2009,04,12,23,53,5.90
2009,04,12,23,54,5.90
2009,04,12,23,55,6.00
2009,04,12,23,56,5.90
2009,04,12,23,57,5.90
2009,04,12,23,58,5.90
2009,04,12,23,59,5.80
